Total_Precipitation_Accumulation
0.29 0.17 0.17 0.21 0.19 0.19 0.28 0.31 0.28 0.13 0.07 0.06 0.05 0.06 0.07 0.06 0.05 0.04 0.05 0.07 0.09 0.10 0.09 0.11 0.12 0.13 0.17 0.22 0.26 0.32 0.38 0.40 0.39 0.39 0.43 0.43 0.46 0.49 0.52 0.55 0.58 0.59 0.58 0.62
0.35 0.20 0.19 0.19 0.14 0.12 0.14 0.13 0.12 0.08 0.08 0.06 0.04 0.04 0.04 0.04 0.05 0.05 0.06 0.07 0.08 0.10 0.11 0.11 0.15 0.20 0.26 0.33 0.37 0.41 0.46 0.48 0.46 0.40 0.40 0.45 0.45 0.47 0.50 0.54 0.54 0.54 0.54 0.55
0.51 0.25 0.38 0.37 0.14 0.10 0.11 0.09 0.09 0.09 0.08 0.05 0.04 0.03 0.03 0.04 0.05 0.06 0.06 0.07 0.09 0.11 0.14 0.16 0.21 0.28 0.35 0.39 0.41 0.43 0.46 0.50 0.52 0.45 0.40 0.43 0.45 0.44 0.44 0.44 0.46 0.47 0.47 0.47
0.77 0.52 0.66 0.27 0.07 0.06 0.08 0.08 0.08 0.07 0.07 0.06 0.05 0.04 0.03 0.04 0.07 0.09 0.10 0.12 0.14 0.16 0.18 0.22 0.26 0.31 0.36 0.39 0.42 0.42 0.42 0.42 0.43 0.39 0.34 0.36 0.41 0.40 0.36 0.37 0.41 0.42 0.43 0.42
0.99 0.74 0.38 0.09 0.04 0.05 0.09 0.11 0.09 0.08 0.07 0.06 0.06 0.06 0.07 0.08 0.08 0.09 0.10 0.10 0.11 0.12 0.15 0.20 0.25 0.28 0.29 0.30 0.32 0.31 0.31 0.29 0.30 0.28 0.27 0.32 0.37 0.34 0.31 0.31 0.33 0.36 0.39 0.43
1.11 0.86 0.38 0.09 0.04 0.04 0.10 0.15 0.10 0.09 0.08 0.08 0.12 0.25 0.15 0.12 0.09 0.07 0.06 0.06 0.07 0.08 0.09 0.12 0.16 0.18 0.19 0.19 0.20 0.22 0.21 0.21 0.27 0.25 0.23 0.28 0.34 0.32 0.31 0.30 0.32 0.35 0.38 0.45
0.91 0.78 0.30 0.07 0.04 0.06 0.19 0.22 0.15 0.13 0.12 0.16 0.24 0.30 0.18 0.12 0.10 0.08 0.06 0.05 0.05 0.06 0.09 0.12 0.15 0.16 0.15 0.13 0.13 0.14 0.16 0.18 0.25 0.27 0.25 0.25 0.28 0.31 0.31 0.32 0.33 0.36 0.38 0.42
0.66 0.83 0.38 0.08 0.08 0.15 0.21 0.16 0.14 0.16 0.17 0.23 0.19 0.12 0.10 0.10 0.10 0.08 0.06 0.06 0.06 0.07 0.11 0.16 0.18 0.14 0.10 0.09 0.09 0.10 0.14 0.17 0.23 0.30 0.28 0.26 0.28 0.28 0.29 0.33 0.37 0.38 0.40 0.42
0.46 0.38 0.16 0.09 0.11 0.12 0.14 0.16 0.19 0.26 0.26 0.24 0.21 0.14 0.13 0.11 0.09 0.07 0.07 0.08 0.09 0.10 0.15 0.18 0.14 0.10 0.09 0.08 0.08 0.10 0.13 0.18 0.23 0.28 0.28 0.27 0.28 0.29 0.30 0.33 0.39 0.43 0.45 0.47
0.31 0.20 0.12 0.09 0.08 0.08 0.10 0.15 0.19 0.22 0.24 0.26 0.28 0.21 0.17 0.14 0.11 0.09 0.09 0.10 0.11 0.11 0.15 0.17 0.12 0.07 0.07 0.07 0.07 0.09 0.12 0.18 0.23 0.27 0.29 0.28 0.27 0.28 0.30 0.36 0.51 0.59 0.58 0.57
0.20 0.15 0.13 0.12 0.10 0.10 0.12 0.11 0.10 0.11 0.15 0.24 0.29 0.23 0.15 0.12 0.12 0.13 0.13 0.13 0.14 0.14 0.15 0.14 0.10 0.07 0.07 0.09 0.10 0.12 0.13 0.17 0.23 0.27 0.29 0.30 0.28 0.29 0.33 0.38 0.61 0.86 0.82 0.81
0.15 0.12 0.13 0.12 0.10 0.12 0.15 0.13 0.13 0.15 0.16 0.17 0.20 0.18 0.15 0.15 0.16 0.17 0.19 0.20 0.19 0.16 0.12 0.11 0.10 0.08 0.09 0.11 0.14 0.16 0.17 0.20 0.24 0.29 0.31 0.31 0.31 0.31 0.33 0.37 0.47 0.56 0.63 0.75
0.09 0.08 0.09 0.09 0.08 0.08 0.11 0.13 0.16 0.18 0.17 0.14 0.13 0.15 0.20 0.24 0.22 0.21 0.22 0.21 0.18 0.14 0.13 0.13 0.12 0.11 0.12 0.15 0.18 0.20 0.21 0.24 0.29 0.31 0.33 0.34 0.35 0.37 0.36 0.34 0.35 0.40 0.45 0.53
0.06 0.07 0.10 0.08 0.07 0.07 0.09 0.11 0.14 0.17 0.15 0.12 0.12 0.13 0.18 0.22 0.22 0.19 0.19 0.16 0.13 0.12 0.12 0.13 0.13 0.13 0.14 0.17 0.22 0.25 0.26 0.29 0.32 0.34 0.36 0.37 0.39 0.39 0.39 0.40 0.40 0.40 0.41 0.46
0.05 0.07 0.10 0.08 0.07 0.08 0.10 0.11 0.13 0.14 0.13 0.13 0.12 0.13 0.15 0.18 0.21 0.21 0.17 0.13 0.11 0.11 0.12 0.13 0.13 0.13 0.14 0.17 0.21 0.23 0.26 0.28 0.32 0.36 0.37 0.39 0.41 0.42 0.42 0.41 0.42 0.43 0.44 0.47
0.07 0.08 0.08 0.08 0.09 0.11 0.11 0.12 0.13 0.14 0.13 0.14 0.14 0.14 0.14 0.15 0.15 0.15 0.14 0.13 0.12 0.12 0.13 0.14 0.14 0.15 0.15 0.18 0.21 0.22 0.24 0.30 0.36 0.37 0.39 0.40 0.43 0.45 0.46 0.47 0.47 0.47 0.50 0.55
0.10 0.10 0.11 0.12 0.13 0.14 0.15 0.16 0.15 0.14 0.11 0.10 0.11 0.11 0.11 0.10 0.10 0.10 0.11 0.12 0.12 0.13 0.13 0.14 0.15 0.15 0.16 0.18 0.24 0.26 0.27 0.31 0.37 0.37 0.39 0.41 0.45 0.50 0.51 0.54 0.55 0.53 0.51 0.55
0.12 0.14 0.15 0.17 0.17 0.16 0.16 0.13 0.11 0.10 0.10 0.10 0.09 0.09 0.09 0.10 0.10 0.10 0.10 0.11 0.11 0.11 0.12 0.14 0.17 0.16 0.15 0.19 0.28 0.30 0.33 0.37 0.39 0.41 0.41 0.44 0.50 0.52 0.53 0.55 0.55 0.54 0.51 0.51
0.13 0.13 0.14 0.15 0.16 0.16 0.15 0.13 0.10 0.10 0.10 0.10 0.10 0.11 0.11 0.11 0.12 0.12 0.11 0.11 0.11 0.13 0.14 0.15 0.17 0.15 0.16 0.20 0.32 0.36 0.39 0.42 0.43 0.41 0.43 0.49 0.50 0.46 0.49 0.52 0.54 0.52 0.50 0.50
0.14 0.14 0.15 0.15 0.15 0.15 0.14 0.12 0.10 0.09 0.10 0.10 0.11 0.11 0.11 0.11 0.12 0.13 0.12 0.13 0.15 0.18 0.17 0.17 0.17 0.19 0.22 0.27 0.39 0.43 0.45 0.46 0.47 0.45 0.45 0.47 0.48 0.48 0.48 0.50 0.52 0.53 0.52 0.51
0.16 0.15 0.16 0.16 0.15 0.13 0.11 0.10 0.09 0.09 0.09 0.09 0.10 0.11 0.12 0.12 0.13 0.13 0.14 0.15 0.16 0.18 0.17 0.18 0.21 0.30 0.37 0.44 0.47 0.46 0.46 0.47 0.48 0.49 0.51 0.52 0.53 0.50 0.49 0.50 0.52 0.53 0.53 0.52
0.16 0.17 0.17 0.16 0.14 0.13 0.11 0.11 0.11 0.10 0.10 0.11 0.11 0.13 0.14 0.15 0.15 0.16 0.17 0.19 0.21 0.24 0.22 0.21 0.30 0.47 0.51 0.51 0.46 0.45 0.44 0.42 0.44 0.47 0.51 0.55 0.59 0.58 0.55 0.55 0.58 0.56 0.54 0.55
0.17 0.18 0.19 0.18 0.16 0.15 0.14 0.13 0.13 0.13 0.13 0.14 0.15 0.16 0.18 0.20 0.20 0.23 0.27 0.25 0.25 0.28 0.26 0.27 0.38 0.47 0.48 0.44 0.42 0.42 0.42 0.44 0.46 0.49 0.53 0.58 0.61 0.64 0.65 0.63 0.61 0.60 0.60 0.60
0.22 0.22 0.21 0.19 0.16 0.15 0.16 0.17 0.16 0.16 0.17 0.18 0.19 0.20 0.21 0.23 0.24 0.25 0.28 0.29 0.28 0.29 0.27 0.30 0.37 0.40 0.39 0.38 0.39 0.40 0.44 0.49 0.54 0.56 0.57 0.60 0.61 0.63 0.67 0.69 0.68 0.63 0.62 0.62
0.27 0.25 0.23 0.20 0.19 0.20 0.21 0.21 0.20 0.20 0.19 0.20 0.22 0.23 0.23 0.25 0.29 0.30 0.28 0.29 0.30 0.30 0.29 0.31 0.34 0.35 0.34 0.36 0.39 0.43 0.49 0.56 0.64 0.68 0.68 0.66 0.64 0.65 0.66 0.68 0.71 0.71 0.68 0.65
0.32 0.30 0.28 0.26 0.25 0.24 0.24 0.24 0.25 0.25 0.23 0.23 0.24 0.23 0.23 0.24 0.26 0.28 0.29 0.30 0.31 0.31 0.31 0.31 0.32 0.35 0.37 0.40 0.43 0.47 0.53 0.58 0.62 0.62 0.61 0.64 0.63 0.65 0.67 0.70 0.71 0.72 0.71 0.68
0.33 0.30 0.26 0.24 0.23 0.23 0.23 0.24 0.26 0.27 0.27 0.26 0.27 0.25 0.22 0.22 0.24 0.25 0.27 0.30 0.32 0.32 0.33 0.35 0.36 0.38 0.41 0.43 0.46 0.50 0.54 0.57 0.61 0.65 0.65 0.65 0.66 0.68 0.69 0.72 0.74 0.73 0.72 0.70